Blythe, CA

8:35 PM PST on November 19, 2019 (GMT -0800)
Blythe

Weather History for KBLH - October, 2019

Change the Weather History Date:

Wednesday, October 23, 2019

  Actual Average Record
Temperature  
Mean Temperature 78 °F -  
Max Temperature 96 °F 82 °F 100 °F (2003)
Min Temperature 62 °F 55 °F 42 °F (1996)
Cooling Degree Days 14    
Growing Degree Days 28 (Base 50)    
Moisture  
Dew Point 25 °F    
Average Humidity 15    
Maximum Humidity 20    
Minimum Humidity 9    
Precipitation  
Precipitation 0.00 in - - ()
Sea Level Pressure  
Sea Level Pressure 29.87 in    
Wind  
Wind Speed 5 mph (NNW)    
Max Wind Speed 14 mph    
Max Gust Speed -    
Visibility 10 miles    
Events      
Averages and records for this station are not official NWS values.
T = Trace of Precipitation, MM = Missing Value Source: NWS Daily Summary

Daily Weather History Graph

Daily Weather History Graph

Search for Another Location

Airport or City:

Astronomy

Oct. 23, 2019 Rise Set
Actual Time 6:49 AM PDT 5:55 PM PDT
Civil Twilight 6:24 AM PDT 6:21 PM PDT
Nautical Twilight 5:55 AM PDT 6:50 PM PDT
Astronomical Twilight 5:26 AM PDT 7:19 PM PDT
Moon 1:34 AM PDT (10/23) 3:30 PM PDT (10/23)
Length of Visible Light 11h 56m
Length of Day
11h 05m
Waning Crescent, 25% of the Moon is Illuminated
Oct 23
Waning Crescent
Oct 27
New
Nov 4
First Quarter
Nov 12
Full
Nov 19
Last Quarter

Hourly Weather History & Observations

Time (PDT) Temp. Dew Point Humidity Pressure Visibility Wind Dir Wind Speed Gust Speed Precip Events Conditions
12:52 AM 72.0 °F 21.0 °F 15% 29.91 in 10.0 mi WSW 8.1 mph - N/A   Clear
1:52 AM 70.0 °F 21.0 °F 16% 29.91 in 10.0 mi Calm Calm - N/A   Clear
2:52 AM 66.0 °F 19.9 °F 17% 29.90 in 10.0 mi West 8.1 mph - N/A   Clear
3:52 AM 62.1 °F 19.0 °F 19% 29.89 in 10.0 mi NNW 4.6 mph - N/A   Clear
4:52 AM 63.0 °F 21.0 °F 20% 29.89 in 10.0 mi NNW 6.9 mph - N/A   Clear
5:52 AM 64.0 °F 21.0 °F 19% 29.89 in 10.0 mi Calm Calm - N/A   Clear
6:52 AM 64.0 °F 21.9 °F 20% 29.90 in 10.0 mi Calm Calm - N/A   Clear
7:52 AM 64.0 °F 21.0 °F 19% 29.91 in 10.0 mi Calm Calm - N/A   Clear
8:52 AM 72.0 °F 23.0 °F 16% 29.93 in 10.0 mi Calm Calm - N/A   Clear
9:52 AM 77.0 °F 23.0 °F 13% 29.93 in 10.0 mi Calm Calm - N/A   Clear
10:52 AM 80.1 °F 28.0 °F 15% 29.92 in 10.0 mi SE 3.5 mph - N/A   Clear
11:52 AM 84.9 °F 28.9 °F 13% 29.90 in 10.0 mi Variable 4.6 mph - N/A   Clear
12:52 PM 88.0 °F 30.0 °F 12% 29.87 in 10.0 mi Variable 3.5 mph - N/A   Clear
1:52 PM 93.9 °F 26.1 °F 9% 29.83 in 10.0 mi North - - N/A   Clear
2:52 PM 95.0 °F 26.1 °F 9% 29.81 in 10.0 mi North 13.8 mph - N/A   Clear
3:52 PM 93.9 °F 30.9 °F 11% 29.81 in 10.0 mi East 9.2 mph - N/A   Clear
4:52 PM 93.0 °F 32.0 °F 12% 29.79 in 10.0 mi ESE 4.6 mph - N/A   Clear
5:52 PM 88.0 °F 37.0 °F 16% 29.79 in 10.0 mi Calm Calm - N/A   Clear
7:52 PM 81.0 °F 24.1 °F 12% 29.83 in 10.0 mi NW 9.2 mph - N/A   Clear
8:52 PM 80.1 °F 23.0 °F 12% 29.84 in 10.0 mi NW 10.4 mph - N/A   Clear
9:52 PM 78.1 °F 23.0 °F 13% 29.85 in 10.0 mi NNW 3.5 mph - N/A   Clear
10:52 PM 75.0 °F 23.0 °F 14% 29.85 in 10.0 mi NNW 9.2 mph - N/A   Clear
11:52 PM 75.0 °F 23.0 °F 14% 29.86 in 10.0 mi North 12.7 mph - N/A   Clear